Tracking 18030 objects as of 29-March-2017
HD Live streaming from Space Station
objects crossing your sky now

COSMOS 2440

Track COSMOS 2440 now!
COSMOS 2440 is classified as:


NORAD ID: 33108
Int'l Code: 2008-033A
Perigee: 35,773.2 km
Apogee: 35,812.4 km
Inclination: 4.5 °
Period: 1,436.0 minutes
Semi major axis: 42163 km
RCS: 10.0237 m2 (large)
Launch date: June 27, 2008
Source: Commonwealth of Independent States (former USSR) (CIS)
Launch site: TYURATAM MISSILE AND SPACE COMPLEX (TTMTR)

Cosmos 2440 is a Russian military, geostationary, early warning craft.
Your satellite tracking list
Your tracking list is empty





NASA's NSSDC Master Catalog

Two Line Element Set (TLE):
1 33108U 08033A   17085.99770484 -.00000053 +00000-0 +00000-0 0  9997
2 33108 004.5056 057.4321 0004654 199.7612 356.4477 01.00275079032005
Source of the keplerian elements: AFSPC